TimeCDT,TemperatureF,Dew PointF,Humidity,Sea Level PressureIn,VisibilityMPH,Wind Direction,Wind SpeedMPH,Gust SpeedMPH,PrecipitationIn,Events,Conditions,WindDirDegrees,DateUTC
12:53 AM,73.9,70.0,87,29.93,10.0,NNE,5.8,-,N/A,,Scattered Clouds,30,2013-06-03 05:53:00
1:53 AM,75.0,70.0,84,29.92,10.0,NNE,5.8,-,N/A,,Mostly Cloudy,20,2013-06-03 06:53:00
2:53 AM,73.9,70.0,87,29.93,10.0,North,4.6,-,N/A,,Clear,10,2013-06-03 07:53:00
3:53 AM,73.0,70.0,90,29.94,10.0,North,5.8,-,N/A,,Partly Cloudy,360,2013-06-03 08:53:00
4:53 AM,73.0,70.0,90,29.93,10.0,North,4.6,-,N/A,,Clear,360,2013-06-03 09:53:00
5:53 AM,72.0,70.0,93,29.94,10.0,North,4.6,-,N/A,,Clear,10,2013-06-03 10:53:00
6:53 AM,73.0,70.0,90,29.95,10.0,North,4.6,-,N/A,,Clear,10,2013-06-03 11:53:00
7:53 AM,75.9,70.0,82,29.96,10.0,NNE,6.9,-,N/A,,Clear,30,2013-06-03 12:53:00
8:53 AM,78.1,71.1,79,29.96,10.0,NE,5.8,-,N/A,,Clear,50,2013-06-03 13:53:00
9:53 AM,82.0,72.0,71,29.96,10.0,NE,6.9,-,N/A,,Partly Cloudy,50,2013-06-03 14:53:00
10:40 AM,82.4,71.6,70,29.93,10.0,NNE,5.8,-,N/A,,Mostly Cloudy,30,2013-06-03 15:40:00
10:53 AM,84.0,70.0,63,29.95,10.0,NNE,4.6,-,N/A,,Partly Cloudy,20,2013-06-03 15:53:00
11:53 AM,84.9,69.1,59,29.95,10.0,NNE,3.5,-,N/A,,Overcast,30,2013-06-03 16:53:00
12:53 PM,88.0,66.9,49,29.93,10.0,Variable,3.5,-,N/A,,Scattered Clouds,0,2013-06-03 17:53:00
1:53 PM,88.0,69.1,53,29.91,10.0,NNE,9.2,-,N/A,,Mostly Cloudy,30,2013-06-03 18:53:00
2:53 PM,90.0,69.1,50,29.89,10.0,Variable,4.6,-,N/A,,Partly Cloudy,0,2013-06-03 19:53:00
3:53 PM,90.0,66.9,46,29.88,10.0,ENE,6.9,-,N/A,,Partly Cloudy,70,2013-06-03 20:53:00
4:53 PM,90.0,69.1,50,29.87,10.0,ENE,10.4,-,N/A,,Partly Cloudy,60,2013-06-03 21:53:00
5:53 PM,89.1,66.9,48,29.86,10.0,Variable,6.9,-,N/A,,Clear,0,2013-06-03 22:53:00
6:53 PM,88.0,68.0,51,29.86,10.0,NE,9.2,-,N/A,,Clear,40,2013-06-03 23:53:00
7:53 PM,82.9,71.1,67,29.88,10.0,NE,5.8,-,N/A,,Clear,40,2013-06-04 00:53:00
8:53 PM,80.1,70.0,71,29.89,10.0,NE,3.5,-,N/A,,Clear,50,2013-06-04 01:53:00
9:53 PM,75.9,72.0,87,29.91,10.0,Calm,Calm,-,N/A,,Scattered Clouds,0,2013-06-04 02:53:00
10:53 PM,78.1,70.0,76,29.92,10.0,NE,4.6,-,N/A,,Clear,50,2013-06-04 03:53:00
11:53 PM,77.0,71.1,82,29.92,10.0,ENE,3.5,-,N/A,,Clear,60,2013-06-04 04:53:00